Regional Weather Roundup
Issued by NWS Green Bay, WI

Home | Current Version | Previous Version | Graphics & Text | Print | Product List | Glossary Off
Versions: 1 2 3 4 5 6 7 8 9 10 11 12 13 14 15 16 17 18 19 20 21 22 23 24 25 26 27 28 29 30 31 32 33 34 35 36 37 38 39 40 41 42 43 44 45 46 47 48 49 50

000
ASUS43 KGRB 272300
RWRGRB

NORTH-CENTRAL AND NORTHEAST WISCONSIN REGIONAL WEATHER ROUNDUP
NATIONAL WEATHER SERVICE GREEN BAY WI
600 PM CDT MON JUL 27 2015

WIZ005-009-010>012-018-019-280000-
NORTH CENTRAL WISCONSIN

CITY           SKY/WX    TMP DP  RH WIND       PRES   REMARKS
IRONWOOD       SUNNY     88  55  33 SE7         N/A
MANITOWISH WTR NOT AVBL
ARBOR VITAE    NOT AVBL
EAGLE RIVER    NOT AVBL
LAND O LAKES   NOT AVBL
RHINELANDER    SUNNY     85  59  41 S8        30.03F
PHILLIPS       NOT AVBL
ANTIGO         NOT AVBL
TOMAHAWK       NOT AVBL
MERRILL        NOT AVBL
$$

WIZ013-073-280000-
NORTHEAST WISCONSIN

CITY           SKY/WX    TMP DP  RH WIND       PRES   REMARKS
IRON MOUNTAIN  SUNNY     87  60  40 S9        29.99F
MARINETTE      SUNNY     84  61  45 SW8       29.99F
$$

WIZ017-030-035>037-045-280000-
CENTRAL WISCONSIN

CITY           SKY/WX    TMP DP  RH WIND       PRES   REMARKS
MEDFORD        NOT AVBL
WAUSAU         SUNNY     85  61  44 SE12G17   29.99F
MOSINEE        NOT AVBL
MARSHFIELD     MOSUNNY   85  63  47 SE6       30.00R
WISC RAPIDS    MOSUNNY   86  58  38 SE12      29.99F
STEVENS POINT  NOT AVBL
WAUPACA        NOT AVBL
SHAWANO        NOT AVBL
CLINTONVILLE   NOT AVBL
$$

WIZ038-039-048-051-280000-
FOX VALLEY

CITY           SKY/WX    TMP DP  RH WIND       PRES   REMARKS
NWS GREEN BAY  SUNNY     85  64  49 SE10      30.00F
APPLETON       MOSUNNY  N/A N/A N/A S8        30.01F
OSHKOSH        PTSUNNY   85  62  46 SE8       30.00S
FOND DU LAC    PTSUNNY   84  62  47 SE9       30.00F
$$

WIZ022-050-052-280000-
EAST CENTRAL WISCONSIN

CITY           SKY/WX    TMP DP  RH WIND       PRES   REMARKS
STURGEON BAY   SUNNY     84  61  45 S9        30.03F
MANITOWOC      NOT AVBL
SHEBOYGAN      MOSUNNY   82  63  52 S8        30.02S
$$

LMZ563-521-522-541>543-280000-
LAKESHORE

STATION/POSITION TIME  TEMP    WIND        PRES    VSBY  WAVE
                       AIR SEA DIR/SP/G                  HT/PER
                 (UTC) (F)     (DEG/KT/KT) (MB)    (MI)  (FT/S)
SHEBOYGAN LKSHOR 2200   76     140/  2/  2 1016.7F
KEWAUNEE LKSHORE 2200   74     160/  4/  4 1016.3F
ALGOMA MARINA    2212             CALM       N/A
NORTHPORT PIER   2200   85      60/  2/  4 1015.9F
N MID LAKE BUOY  2150   73 71  210/  6/  6 1016.1F         0
SISTER BAY LKSHO 2244   84     300/ 10/ 10   N/A
CHAMBERS ISLAND  2200   85     210/  3/  8 1015.6F
MENOMINEE LKSHOR 2200   80     140/  5/  6 1016.9F
$$


USA.gov is the U.S. government's official web portal to all federal, state and local government web resources and services.